Content
SEND FEEDBACK

Daily
Averages
Monthly
Summary
Canada

QUEBEC CITY AIRPORT, QUEBEC


Home > North America > Canada > Quebec
Elevation: 244 feet     Latitude: 46 48N     Longitude: 71 23W

WEATHER
 
SELECT A DAY
Number of Records: 195,782;   Date Range: 6/30/96 - 10/20/14
 
SHARE

PRINT THIS DATA

[ ← Previous Day ]
WEATHER ALMANAC - AUGUST 21, 2013
[ Next Day → ]
[ °C ]   °F
Weather ElementAverageHighLow
Temperature71.6 °F84.2 °F (2:00 pm)57 °F (5:00 am)
Dewpoint63.4 °F68 °F (12:00 pm)55.4 °F (6:00 am)
Humidity75.7 %95 % (5:00 am)50 % (2:00 pm)
Barometer29.98 in30.06 in (8:00 am)29.87 in (8:00 pm)
Wind Speed8.3 mph20.7 mph (2:00 pm)
Wind Gust23 mph (4:00 pm)
Weather ElementAverage
Visibility12.3 mi
Wind DirectionSSW (197.1 °)

Weather ElementTotal
Precipitation---
Cooling Degree Days5.6 (Base 65)
Growing Degree Days20.6 (Base 50)
Averaged from 29 records on August 21, 2013
WEATHER CONDITIONS BREAKOUT
WIND DIRECTION BREAKOUT
WEATHER BY HOUR - AUGUST 21, 2013
[ °C ]   °F
Local TimeTemperatureDewpointHumidityBarometerVisibilityWind DirectionWind SpeedGust SpeedPrecipitationEventsConditions
1:00 AM60.8 °F57.2 °F88 %30.04 in15.0 miENE (60°)4.6 mphScattered Clouds
2:00 AM60.8 °F57.2 °F88 %30.04 in15.0 miNE (40°)3.5 mphPartly Cloudy
3:00 AM59.0 °F57.2 °F94 %30.04 in15.0 miCalmPartly Cloudy
4:00 AM59.0 °F57.2 °F94 %30.04 in15.0 miCalmPartly Cloudy
5:00 AM57.0 °F56.0 °F95 %30.01 inWest (260°)2.3 mph
5:00 AM59.0 °F57.2 °F94 %30.04 in12.0 miCalmScattered Clouds
6:00 AM57.2 °F55.4 °F94 %30.04 in10.0 miWSW (240°)2.3 mphPartly Cloudy
7:00 AM60.8 °F59.0 °F94 %30.05 in10.0 miSE (140°)2.3 mphPartly Cloudy
8:00 AM65.0 °F62.0 °F89 %30.04 inCalm
8:00 AM66.2 °F62.6 °F88 %30.06 in10.0 miSW (230°)6.9 mphPartly Cloudy
9:00 AM71.6 °F62.6 °F73 %30.06 in10.0 miWSW (250°)12.7 mphPartly Cloudy
10:00 AM69.8 °F64.4 °F83 %30.05 in10.0 miWSW (240°)11.5 mphPartly Cloudy
11:00 AM76.0 °F67.0 °F66 %30.01 inWSW (250°)9.2 mph
11:00 AM77.0 °F66.2 °F69 %30.04 in15.0 miWest (260°)13.8 mphScattered Clouds
12:00 PM78.8 °F68.0 °F69 %30.02 in15.0 miSSW (210°)11.5 mphPartly Cloudy
1:00 PM82.4 °F68.0 °F62 %30.00 in15.0 miSW (220°)17.3 mphScattered Clouds
2:00 PM83.0 °F67.0 °F50 %29.96 inWSW (250°)12.7 mph
2:00 PM84.2 °F68.0 °F58 %29.98 in15.0 miWSW (240°)20.7 mphScattered Clouds
3:00 PM84.2 °F68.0 °F58 %29.97 in15.0 miWSW (250°)17.3 mphScattered Clouds
4:00 PM84.2 °F68.0 °F58 %29.96 in6.0 miWSW (240°)16.1 mph23.0 mphHaze
5:00 PM84.2 °F68.0 °F58 %29.93 in10.0 miWSW (240°)13.8 mph21.9 mphPartly Cloudy
6:00 PM82.4 °F68.0 °F62 %29.91 in10.0 miSW (220°)13.8 mph21.9 mphPartly Cloudy
7:00 PM78.8 °F66.2 °F65 %29.90 in15.0 miSW (220°)10.4 mph17.3 mphPartly Cloudy
8:00 PM75.0 °F65.0 °F63 %29.87 inWSW (250°)4.6 mph
8:00 PM77.0 °F64.4 °F65 %29.89 in10.0 miSW (230°)9.2 mphPartly Cloudy
9:00 PM71.6 °F64.4 °F78 %29.91 in10.0 miWSW (240°)4.6 mphClear
10:00 PM71.6 °F64.4 °F78 %29.90 in10.0 miSW (230°)8.1 mphClear
11:00 PM70.0 °F65.0 °F80 %29.87 inWSW (250°)4.6 mph
11:00 PM69.8 °F64.4 °F83 %29.89 in15.0 miWest (260°)6.9 mphClear
Hourly data recorded from CYQB, located miles away from Quebec City Airport, Quebec







STORIES FROM OUR PARTNERS